Regional Weather Roundup
Issued by NWS Jackson, KY

Home | Current Version | Previous Version | Text Only | Print | Product List | Glossary Off
Versions: 1 2 3 4 5 6 7 8 9 10 11 12 13 14 15 16 17 18 19 20 21 22 23 24 25 26 27

000
ASUS43 KJKL 111010
RWRJKL

EAST KENTUCKY HOURLY WEATHER ROUNDUP
NATIONAL WEATHER SERVICE JACKSON KY
500 AM EST MON DEC 11 2017

NOTE: "FAIR" INDICATES FEW OR NO CLOUDS BELOW 12,000 FEET WITH
NO SIGNIFICANT WEATHER AND/OR OBSTRUCTIONS TO VISIBILITY.

* THESE REPORTS ARE NOT UNDER NWS QUALITY CONTROL AND MAY NOT
  REPORT WEATHER SUCH AS PRECIPITATION AND FOG.

KYZ079-080-083-085-087-088-110-112-115-119-120-111100
...EASTERN KENTUCKY...

CITY           SKY/WX    TMP DP  RH WIND       PRES   REMARKS
JACKSON        CLEAR     33  21  61 SW6       30.09F WCI  28
LONDON         CLEAR     27  20  75 CALM      30.11F
SOMERSET*      CLEAR     28  23  80 CALM      30.13F
MONTICELLO*    CLEAR     25  22  88 NE8       30.14F WCI  16
WILLIAMSBURG*  SUNNY     34  23  64 SW3       30.12F
MIDDLESBORO*   CLEAR     25  22  89 CALM      30.15F
HARLAN APT*    SUNNY     28  21  74 CALM      30.12F
PIKE CO APT*     N/A     35  22  59 SW6       30.09S WCI  30
BIG SANDY APT* SUNNY     34  22  61 W3        30.09F
MOREHEAD APT*  MOSUNNY   30  21  69 SW5       30.11S WCI  25
$$

KYZ035-036-041-042-044-050-067-078-099-111100
...CENTRAL KENTUCKY...

CITY           SKY/WX    TMP DP  RH WIND       PRES   REMARKS
MT STERLING*   CLEAR     28  23  80 W5        30.12R WCI  23
FLEMING/MASON* CLEAR     27  21  79 SW5       30.11S WCI  21
DANVILLE*      CLEAR     27  21  80 S3        30.11F
LEXINGTON      CLEAR     27  20  75 S6        30.10F WCI  20
FRANKFORT      CLEAR     24  17  74 CALM      30.09F
LOUISVILLE     CLEAR     28  23  81 CALM      30.11F
LEBANON*         N/A     30  21  69 CALM      30.11S
GLASGOW*       CLEAR     26  22  87 CALM      30.13S
BOWLING GREEN  CLEAR     27  23  85 CALM      30.14F
$$

KYZ091>093-OHZ055-061-077-WVZ005-015-034-035-042-111100
...SOUTHERN OHIO/WEST VIRGINIA...

CITY           SKY/WX    TMP DP  RH WIND       PRES   REMARKS
COVINGTON      CLEAR     23  20  88 W3        30.09R
COLUMBUS       CLOUDY    31  22  69 W8        30.06R WCI  23
DAYTON         CLOUDY    26  21  81 SW3       30.06F
WILMINGTON     CLOUDY    28  23  81 CALM      30.07S
HUNTINGTON     CLEAR     30  19  63 SW5       30.09S WCI  25
CHARLESTON     PTCLDY    35  20  54 W6        30.08S WCI  30
PINEVILLE*       N/A     21  19  92 MISG      30.12S
BECKLEY        CLEAR     28  18  66 W6        30.02  WCI  22
BLUEFIELD      PTCLDY    29  18  63 W13G23    30.02F WCI  19
LOGAN CO APT*    N/A     34  21  60 VRB6G13   30.06F WCI  29
$$

VAZ002-007-008-TNZ017-027-036-066-071-111100
...SOUTHWEST VIRGINIA/EAST TENNESSEE...

CITY           SKY/WX    TMP DP  RH WIND       PRES   REMARKS
WISE*          CLEAR     30  23  74 CALM      30.07F
JONESVILLE*      N/A     19  18  93 CALM      30.17F
ABINGDON*      CLEAR     29  21  71 W3        30.10F
BRISTOL        CLEAR     22  20  92 CALM      30.14F
MORRISTOWN*    SUNNY     32  23  69 SW3       30.14F
SEVIERVILLE*   SUNNY     28  25  86 CALM      30.16S
KNOXVILLE      CLEAR     33  26  75 NW3       30.16F
LAFOLLETTE*    SUNNY     25  23  93 CALM      30.19F
OAK RIDGE      CLEAR     29  24  82 SW5       30.17F WCI  24
CROSSVILLE     CLEAR     29  21  72 SW3       30.13F
NASHVILLE      CLEAR     33  25  72 S5        30.15F WCI  29
$$

...KEY TO REMARKS...
VSB - VISIBILITY IN MILES
WCI - WIND CHILL INDEX
HX  - HEAT INDEX

$$




USA.gov is the U.S. government's official web portal to all federal, state and local government web resources and services.